Location: Unspecified
(52.1971°N, 0.0000°E)
Time: 20:19:32
(UTC+00:00)

YUBILEINY - Pass Details

Date: 17 December 2019
Orbit: 1478 x 1509 km, 82.5° (Epoch: 26 January)

Event Time Altitude Azimuth Distance (km) Brightness Sun altitude
Exits shadow 21:03:51 11° 12° (NNE) 3,555 ? -46.4°
Drops below altitude 10° 21:04:00 10° 12° (NNE) 3,605 ? -46.4°
Sets 21:06:57 0° 12° (NNE) 4,613 ? -46.8°
